{"data":{"norad_id":67819,"intl_designator":"2026-032Y","name":"STARLINK-36788","alt_names":[],"object_type":"PAYLOAD","status":"ACTIVE","operator":null,"country":"US","launch_date":"2026-02-15","launch_site_code":"AFWTR","launch_vehicle":null,"mission":null,"orbit_class":"UNKNOWN","rcs_meters":null,"size_class":null,"mass_kg":null,"dimensions":null,"purposes":["comms"],"wikipedia_slug":null,"has_3d_model":false,"image_url":null,"decayed_at":null,"tle_current":{"epoch":"2026-09-19T18:34:25.086144Z","epoch_age_seconds":129259,"freshness":"FRESH","line1":"1 67819U 26032Y   26262.77390146  .00014339  00000+0  44561-3 0  9991","line2":"2 67819  97.2858  89.1871 0001724  89.6780 270.4661 15.33446550 34704","mean_motion":15.3344655,"eccentricity":0.0001724,"inclination_deg":97.2858,"raan_deg":89.1871,"arg_perigee_deg":89.678,"mean_anomaly_deg":270.4661,"bstar":0.00044561,"rev_number":3470,"period_min":93.906109736919,"perigee_km":464.35871310551,"apogee_km":466.71841243956,"semimajor_km":6843.6755627725,"source":"CELESTRAK","updated_at":"2026-09-20T09:00:43.666477Z"}}}